Location: Bazugues
(43.4465°N, 0.3432°E)
Time: 02:56:32
(UTC+00:00)

BlueWalker 3 - Visible Passes

Search period start: 06 March 2026 00:00
Search period end: 16 March 2026 00:00
Orbit: 451 x 458 km, 53.2° (Epoch: 5 March)

Date Brightness Start Highest point End Pass type
(mag) Time Alt. Az. Time Alt. Az. Time Alt. Az.
6 Mar 3.9 04:10:42 20° N 04:10:42 20° N 04:12:32 10° NE visible
6 Mar 3.9 05:45:29 10° NW 05:47:58 17° N 05:50:27 10° NE visible
7 Mar 4.8 03:35:54 13° NNE 03:35:54 13° NNE 03:36:29 10° NE visible
7 Mar 4.0 05:09:35 11° NW 05:11:44 17° N 05:14:11 10° NE visible
8 Mar 3.9 04:34:46 16° NNW 04:35:30 17° N 04:37:58 10° NE visible
9 Mar 4.2 03:59:57 17° N 03:59:57 17° N 04:01:45 10° NE visible
9 Mar 3.8 05:34:45 10° NW 05:37:39 22° NNE 05:40:33 10° ENE visible
10 Mar 4.9 03:25:07 12° NNE 03:25:07 12° NNE 03:25:34 10° NE visible
10 Mar 3.9 04:58:48 11° NW 05:01:24 20° NNE 05:04:10 10° ENE visible
11 Mar 3.9 04:23:58 17° NNW 04:25:08 19° N 04:27:46 10° ENE visible
12 Mar 4.2 03:49:11 18° NNE 03:49:11 18° NNE 03:51:23 10° NE visible
12 Mar 2.9 05:23:35 10° NW 05:27:00 40° NNE 05:30:24 10° E visible
13 Mar 5.0 03:14:25 12° NE 03:14:25 12° NE 03:15:00 10° NE visible
13 Mar 3.2 04:48:06 14° NW 04:50:46 33° NNE 04:54:03 10° E visible
14 Mar 3.5 04:13:25 24° N 04:14:29 28° NNE 04:17:39 10° E visible
15 Mar 4.0 03:38:48 24° NE 03:38:48 24° NE 03:41:13 10° ENE visible
15 Mar 1.6 05:12:30 11° WNW 05:15:57 77° SW 05:19:31 10° SE visible
